owner,sensor,date,latitude,longitude,vertical_datum,direction_of_sea_water_velocity,sea_water_speed,upward_sea_water_velocity,qcFlag 
ADCP,ioos:station:wmo:42390:1,2017-11-01T00:27:00Z,26.1290,-94.8980,63.4,19.0,18.9,-10.0,'1111122,1111122,1111122' 
ADCP,ioos:station:wmo:42390:1,2017-11-01T01:27:00Z,26.1290,-94.8980,63.4,6.0,27.5,-17.7,'1111122,1111122,1111122' 
ADCP,ioos:station:wmo:42390:1,2017-11-01T02:27:00Z,26.1290,-94.8980,63.4,2.0,19.0,-9.0,'1111122,1111122,1111122' 
ADCP,ioos:station:wmo:42390:1,2017-11-01T03:27:00Z,26.1290,-94.8980,63.4,356.0,24.5,-14.0,'1111122,1111122,1111122' 
ADCP,ioos:station:wmo:42390:1,2017-11-01T04:27:00Z,26.1290,-94.8980,63.4,360.0,29.8,-17.2,'1111122,1111122,1111122' 
ADCP,ioos:station:wmo:42390:1,2017-11-01T05:47:00Z,26.1290,-94.8980,63.4,352.0,21.3,-13.2,'1111122,1111122,1111122' 
ADCP,ioos:station:wmo:42390:1,2017-11-01T06:47:00Z,26.1290,-94.8980,63.4,358.0,23.1,-12.8,'1111122,1111122,1111122' 
ADCP,ioos:station:wmo:42390:1,2017-11-01T07:47:00Z,26.1290,-94.8980,63.4,359.0,21.3,-9.0,'1111122,1111122,1111122' 
ADCP,ioos:station:wmo:42390:1,2017-11-01T08:47:00Z,26.1290,-94.8980,63.4,355.0,20.3,-8.1,'1111122,1111122,1111122' 
ADCP,ioos:station:wmo:42390:1,2017-11-01T09:47:00Z,26.1290,-94.8980,63.4,7.0,19.5,-9.6,'1111122,1111122,1111122' 
ADCP,ioos:station:wmo:42390:1,2017-11-01T10:47:00Z,26.1290,-94.8980,63.4,353.0,19.3,-9.5,'1111122,1111122,1111122' 
ADCP,ioos:station:wmo:42390:1,2017-11-01T11:47:00Z,26.1290,-94.8980,63.4,359.0,20.7,-10.3,'1111122,1111122,1111122' 
ADCP,ioos:station:wmo:42390:1,2017-11-01T12:47:00Z,26.1290,-94.8980,63.4,347.0,13.8,-13.1,'1111122,1111122,1111122' 
ADCP,ioos:station:wmo:42390:1,2017-11-01T13:47:00Z,26.1290,-94.8980,63.4,347.0,18.6,-16.4,'1111122,1111122,1111122' 
ADCP,ioos:station:wmo:42390:1,2017-11-01T14:47:00Z,26.1290,-94.8980,63.4,347.0,11.9,-7.3,'1111122,1111122,1111122' 
ADCP,ioos:station:wmo:42390:1,2017-11-01T15:47:00Z,26.1290,-94.8980,63.4,349.0,12.6,-12.6,'1111122,1111122,1111122' 
ADCP,ioos:station:wmo:42390:1,2017-11-01T16:27:00Z,26.1290,-94.8980,63.4,331.0,17.4,-14.9,'1111122,1111122,1111122' 
ADCP,ioos:station:wmo:42390:1,2017-11-01T17:47:00Z,26.1290,-94.8980,63.4,359.0,8.8,-5.6,'1111122,1111122,1111122' 
ADCP,ioos:station:wmo:42390:1,2017-11-01T18:47:00Z,26.1290,-94.8980,63.4,354.0,5.9,-9.2,'1111122,1111122,1111122' 
ADCP,ioos:station:wmo:42390:1,2017-11-01T20:47:00Z,26.1290,-94.8980,63.4,306.0,3.1,-8.3,'1111122,1111122,1111122' 
ADCP,ioos:station:wmo:42390:1,2017-11-01T21:47:00Z,26.1290,-94.8980,63.4,90.0,6.7,-1.0,'1111122,1111122,1111122' 
ADCP,ioos:station:wmo:42390:1,2017-11-01T22:47:00Z,26.1290,-94.8980,63.4,313.0,6.7,-9.6,'1111122,1111122,1111122' 
ADCP,ioos:station:wmo:42390:1,2017-11-01T23:47:00Z,26.1290,-94.8980,63.4,288.0,16.4,-12.3,'1111122,1111122,1111122' 
ADCP,ioos:station:wmo:42390:1,2017-11-02T00:47:00Z,26.1290,-94.8980,63.4,310.0,14.6,-14.5,'1111122,1111122,1111122' 
ADCP,ioos:station:wmo:42390:1,2017-11-02T02:07:00Z,26.1290,-94.8980,63.4,300.0,17.3,-7.9,'1111122,1111122,1111122' 
ADCP,ioos:station:wmo:42390:1,2017-11-02T03:07:00Z,26.1290,-94.8980,63.4,299.0,17.7,-8.3,'1111122,1111122,1111122' 
ADCP,ioos:station:wmo:42390:1,2017-11-02T04:07:00Z,26.1290,-94.8980,63.4,317.0,22.8,-15.9,'1111122,1111122,1111122' 
ADCP,ioos:station:wmo:42390:1,2017-11-02T05:07:00Z,26.1290,-94.8980,63.4,327.0,18.5,-12.6,'1111122,1111122,1111122' 
ADCP,ioos:station:wmo:42390:1,2017-11-02T06:07:00Z,26.1290,-94.8980,63.4,325.0,19.2,-8.6,'1111122,1111122,1111122' 
ADCP,ioos:station:wmo:42390:1,2017-11-02T07:07:00Z,26.1290,-94.8980,63.4,321.0,19.1,-7.3,'1111122,1111122,1111122' 
ADCP,ioos:station:wmo:42390:1,2017-11-02T08:07:00Z,26.1290,-94.8980,63.4,9.0,13.5,-0.4,'1111122,1111122,1111122' 
ADCP,ioos:station:wmo:42390:1,2017-11-02T09:07:00Z,26.1290,-94.8980,63.4,12.0,23.7,-5.3,'1111122,1111122,1111122' 
ADCP,ioos:station:wmo:42390:1,2017-11-02T10:07:00Z,26.1290,-94.8980,63.4,358.0,20.6,-6.0,'1111122,1111122,1111122' 
ADCP,ioos:station:wmo:42390:1,2017-11-02T11:07:00Z,26.1290,-94.8980,63.4,360.0,24.9,-8.3,'1111122,1111122,1111122' 
ADCP,ioos:station:wmo:42390:1,2017-11-02T12:07:00Z,26.1290,-94.8980,63.4,351.0,26.5,-14.1,'1111122,1111122,1111122' 
ADCP,ioos:station:wmo:42390:1,2017-11-02T13:07:00Z,26.1290,-94.8980,63.4,5.0,13.1,-7.3,'1111122,1111122,1111122' 
ADCP,ioos:station:wmo:42390:1,2017-11-02T14:27:00Z,26.1290,-94.8980,63.4,349.0,12.0,-7.3,'1111122,1111122,1111122' 
ADCP,ioos:station:wmo:42390:1,2017-11-02T15:47:00Z,26.1290,-94.8980,63.4,335.0,22.2,-17.9,'1111122,1111122,1111122' 
ADCP,ioos:station:wmo:42390:1,2017-11-02T17:07:00Z,26.1290,-94.8980,63.4,360.0,19.9,-18.6,'1111122,1111122,1111122' 
ADCP,ioos:station:wmo:42390:1,2017-11-02T18:27:00Z,26.1290,-94.8980,63.4,348.0,18.6,-20.5,'1111122,1111122,1111122' 
ADCP,ioos:station:wmo:42390:1,2017-11-02T21:07:00Z,26.1290,-94.8980,63.4,314.0,16.8,-21.5,'1111122,1111122,1111122' 
ADCP,ioos:station:wmo:42390:1,2017-11-02T22:27:00Z,26.1290,-94.8980,63.4,293.0,14.1,-15.0,'1111122,1111122,1111122' 
ADCP,ioos:station:wmo:42390:1,2017-11-02T23:47:00Z,26.1290,-94.8980,63.4,275.0,24.1,-19.3,'1111122,1111122,1111122' 
ADCP,ioos:station:wmo:42390:1,2017-11-03T01:07:00Z,26.1290,-94.8980,63.4,291.0,28.5,-26.1,'1111122,1111122,1111122' 
ADCP,ioos:station:wmo:42390:1,2017-11-03T02:27:00Z,26.1290,-94.8980,63.4,280.0,27.0,-24.3,'1111122,1111122,1111122' 
ADCP,ioos:station:wmo:42390:1,2017-11-03T03:47:00Z,26.1290,-94.8980,63.4,302.0,27.5,-19.4,'1111122,1111122,1111122' 
ADCP,ioos:station:wmo:42390:1,2017-11-03T05:07:00Z,26.1290,-94.8980,63.4,311.0,26.8,-15.0,'1111122,1111122,1111122' 
ADCP,ioos:station:wmo:42390:1,2017-11-03T06:27:00Z,26.1290,-94.8980,63.4,311.0,34.4,-18.0,'1111122,1111122,1111122' 
ADCP,ioos:station:wmo:42390:1,2017-11-03T07:47:00Z,26.1290,-94.8980,63.4,311.0,33.8,-27.5,'1111122,1111122,1111122' 
ADCP,ioos:station:wmo:42390:1,2017-11-03T08:47:00Z,26.1290,-94.8980,63.4,327.0,35.9,-33.7,'1111122,1111122,1111122' 
ADCP,ioos:station:wmo:42390:1,2017-11-03T10:47:00Z,26.1290,-94.8980,63.4,317.0,27.7,-14.6,'1111122,1111122,1111122' 
ADCP,ioos:station:wmo:42390:1,2017-11-03T11:47:00Z,26.1290,-94.8980,63.4,336.0,31.3,-32.2,'1111122,1111122,1111122' 
ADCP,ioos:station:wmo:42390:1,2017-11-03T12:47:00Z,26.1290,-94.8980,63.4,328.0,22.5,-21.7,'1111122,1111122,1111122' 
ADCP,ioos:station:wmo:42390:1,2017-11-03T13:47:00Z,26.1290,-94.8980,63.4,337.0,9.2,-6.4,'1111122,1111122,1111122' 
ADCP,ioos:station:wmo:42390:1,2017-11-03T14:47:00Z,26.1290,-94.8980,63.4,322.0,15.5,-13.5,'1111122,1111122,1111122' 
ADCP,ioos:station:wmo:42390:1,2017-11-03T15:47:00Z,26.1290,-94.8980,63.4,322.0,12.8,-9.7,'1111122,1111122,1111122' 
ADCP,ioos:station:wmo:42390:1,2017-11-03T16:47:00Z,26.1290,-94.8980,63.4,328.0,15.3,-15.3,'1111122,1111122,1111122' 
ADCP,ioos:station:wmo:42390:1,2017-11-03T17:47:00Z,26.1290,-94.8980,63.4,316.0,13.6,-12.2,'1111122,1111122,1111122' 
ADCP,ioos:station:wmo:42390:1,2017-11-03T19:07:00Z,26.1290,-94.8980,63.4,320.0,16.5,-18.4,'1111122,1111122,1111122' 
ADCP,ioos:station:wmo:42390:1,2017-11-03T20:07:00Z,26.1290,-94.8980,63.4,293.0,16.9,-17.5,'1111122,1111122,1111122' 
ADCP,ioos:station:wmo:42390:1,2017-11-03T23:07:00Z,26.1290,-94.8980,63.4,305.0,13.2,-15.5,'1111122,1111122,1111122' 
ADCP,ioos:station:wmo:42390:1,2017-11-04T00:27:00Z,26.1290,-94.8980,63.4,261.0,16.4,-13.0,'1111122,1111122,1111122' 
ADCP,ioos:station:wmo:42390:1,2017-11-04T01:47:00Z,26.1290,-94.8980,63.4,285.0,22.7,-20.9,'1111122,1111122,1111122' 
ADCP,ioos:station:wmo:42390:1,2017-11-04T03:07:00Z,26.1290,-94.8980,63.4,300.0,32.7,-30.8,'1111122,1111122,1111122' 
ADCP,ioos:station:wmo:42390:1,2017-11-04T04:27:00Z,26.1290,-94.8980,63.4,306.0,37.0,-33.2,'1111122,1111122,1111122' 
ADCP,ioos:station:wmo:42390:1,2017-11-04T05:47:00Z,26.1290,-94.8980,63.4,295.0,29.2,-19.6,'1111122,1111122,1111122' 
ADCP,ioos:station:wmo:42390:1,2017-11-04T07:07:00Z,26.1290,-94.8980,63.4,306.0,31.7,-25.2,'1111122,1111122,1111122' 
ADCP,ioos:station:wmo:42390:1,2017-11-04T08:27:00Z,26.1290,-94.8980,63.4,309.0,35.1,-25.4,'1111122,1111122,1111122' 
ADCP,ioos:station:wmo:42390:1,2017-11-04T09:47:00Z,26.1290,-94.8980,63.4,300.0,27.2,-21.0,'1111122,1111122,1111122' 
ADCP,ioos:station:wmo:42390:1,2017-11-04T11:07:00Z,26.1290,-94.8980,63.4,314.0,29.0,-30.0,'1111122,1111122,1111122' 
ADCP,ioos:station:wmo:42390:1,2017-11-04T12:27:00Z,26.1290,-94.8980,63.4,325.0,11.3,-11.2,'1111122,1111122,1111122' 
ADCP,ioos:station:wmo:42390:1,2017-11-04T13:47:00Z,26.1290,-94.8980,63.4,348.0,10.9,-6.5,'1111122,1111122,1111122' 
ADCP,ioos:station:wmo:42390:1,2017-11-04T15:07:00Z,26.1290,-94.8980,63.4,5.0,18.3,-12.1,'1111122,1111122,1111122' 
ADCP,ioos:station:wmo:42390:1,2017-11-04T16:27:00Z,26.1290,-94.8980,63.4,25.0,12.9,-9.1,'1111122,1111122,1111122' 
ADCP,ioos:station:wmo:42390:1,2017-11-04T17:47:00Z,26.1290,-94.8980,63.4,61.0,13.9,-7.5,'1111122,1111122,1111122' 
ADCP,ioos:station:wmo:42390:1,2017-11-04T19:07:00Z,26.1290,-94.8980,63.4,38.0,15.3,-14.3,'1111122,1111122,1111122' 
ADCP,ioos:station:wmo:42390:1,2017-11-04T20:27:00Z,26.1290,-94.8980,63.4,38.0,8.3,-6.2,'1111122,1111122,1111122' 
ADCP,ioos:station:wmo:42390:1,2017-11-04T21:47:00Z,26.1290,-94.8980,63.4,34.0,9.9,-4.5,'1111122,1111122,1111122' 
ADCP,ioos:station:wmo:42390:1,2017-11-04T23:07:00Z,26.1290,-94.8980,63.4,49.0,10.2,-5.5,'1111122,1111122,1111122' 
ADCP,ioos:station:wmo:42390:1,2017-11-05T00:47:00Z,26.1290,-94.8980,63.4,18.0,10.5,-13.9,'1111122,1111122,1111122' 
ADCP,ioos:station:wmo:42390:1,2017-11-05T02:07:00Z,26.1290,-94.8980,63.4,330.0,10.8,-12.3,'1111122,1111122,1111122' 
ADCP,ioos:station:wmo:42390:1,2017-11-05T03:27:00Z,26.1290,-94.8980,63.4,333.0,19.8,-26.6,'1111122,1111122,1111122' 
ADCP,ioos:station:wmo:42390:1,2017-11-05T04:47:00Z,26.1290,-94.8980,63.4,329.0,25.5,-29.8,'1111122,1111122,1111122' 
ADCP,ioos:station:wmo:42390:1,2017-11-05T06:07:00Z,26.1290,-94.8980,63.4,336.0,32.1,-34.7,'1111122,1111122,1111122' 
ADCP,ioos:station:wmo:42390:1,2017-11-05T07:47:00Z,26.1290,-94.8980,63.4,348.0,32.2,-41.0,'1111122,1111122,1111122' 
ADCP,ioos:station:wmo:42390:1,2017-11-05T08:47:00Z,26.1290,-94.8980,63.4,344.0,38.2,-42.0,'1111122,1111122,1111122' 
ADCP,ioos:station:wmo:42390:1,2017-11-05T10:07:00Z,26.1290,-94.8980,63.4,344.0,33.5,-28.3,'1111122,1111122,1111122' 
ADCP,ioos:station:wmo:42390:1,2017-11-05T11:27:00Z,26.1290,-94.8980,63.4,348.0,28.5,-21.1,'1111122,1111122,1111122' 
ADCP,ioos:station:wmo:42390:1,2017-11-05T12:47:00Z,26.1290,-94.8980,63.4,360.0,19.4,-14.5,'1111122,1111122,1111122' 
ADCP,ioos:station:wmo:42390:1,2017-11-05T14:07:00Z,26.1290,-94.8980,63.4,6.0,14.0,-6.6,'1111122,1111122,1111122' 
ADCP,ioos:station:wmo:42390:1,2017-11-05T15:27:00Z,26.1290,-94.8980,63.4,358.0,11.3,-7.7,'1111122,1111122,1111122' 
ADCP,ioos:station:wmo:42390:1,2017-11-05T16:47:00Z,26.1290,-94.8980,63.4,349.0,10.7,-8.8,'1111122,1111122,1111122' 
ADCP,ioos:station:wmo:42390:1,2017-11-05T18:07:00Z,26.1290,-94.8980,63.4,350.0,9.5,-5.0,'1111122,1111122,1111122' 
ADCP,ioos:station:wmo:42390:1,2017-11-05T19:27:00Z,26.1290,-94.8980,63.4,2.0,2.5,-1.8,'1111122,1111122,1111122' 
ADCP,ioos:station:wmo:42390:1,2017-11-05T20:47:00Z,26.1290,-94.8980,63.4,345.0,8.2,-8.0,'1111122,1111122,1111122' 
ADCP,ioos:station:wmo:42390:1,2017-11-05T22:07:00Z,26.1290,-94.8980,63.4,350.0,4.2,-7.1,'1111122,1111122,1111122' 
ADCP,ioos:station:wmo:42390:1,2017-11-05T23:27:00Z,26.1290,-94.8980,63.4,60.0,4.0,-10.7,'1111122,1111122,1111122' 
ADCP,ioos:station:wmo:42390:1,2017-11-06T00:47:00Z,26.1290,-94.8980,63.4,306.0,23.9,-38.8,'1111122,1111122,1111122' 
ADCP,ioos:station:wmo:42390:1,2017-11-06T02:07:00Z,26.1290,-94.8980,63.4,313.0,25.5,-37.2,'1111122,1111122,1111122' 
ADCP,ioos:station:wmo:42390:1,2017-11-06T03:27:00Z,26.1290,-94.8980,63.4,313.0,25.6,-36.0,'1111122,1111122,1111122' 
ADCP,ioos:station:wmo:42390:1,2017-11-06T04:47:00Z,26.1290,-94.8980,63.4,307.0,24.2,-31.0,'1111122,1111122,1111122' 
ADCP,ioos:station:wmo:42390:1,2017-11-06T06:07:00Z,26.1290,-94.8980,63.4,314.0,28.1,-29.8,'1111122,1111122,1111122' 
ADCP,ioos:station:wmo:42390:1,2017-11-06T07:27:00Z,26.1290,-94.8980,63.4,324.0,29.6,-30.9,'1111122,1111122,1111122' 
ADCP,ioos:station:wmo:42390:1,2017-11-06T08:37:00Z,26.1290,-94.8980,63.4,323.0,28.0,-14.2,'1111122,1111122,1111122' 
ADCP,ioos:station:wmo:42390:1,2017-11-06T10:07:00Z,26.1290,-94.8980,63.4,328.0,25.6,-13.4,'1111122,1111122,1111122' 
ADCP,ioos:station:wmo:42390:1,2017-11-06T11:27:00Z,26.1290,-94.8980,63.4,338.0,25.2,-15.1,'1111122,1111122,1111122' 
ADCP,ioos:station:wmo:42390:1,2017-11-06T14:07:00Z,26.1290,-94.8980,63.4,336.0,10.8,-2.2,'1111122,1111122,1111122' 
ADCP,ioos:station:wmo:42390:1,2017-11-06T15:27:00Z,26.1290,-94.8980,63.4,352.0,18.3,-11.5,'1111122,1111122,1111122' 
ADCP,ioos:station:wmo:42390:1,2017-11-06T16:47:00Z,26.1290,-94.8980,63.4,322.0,3.6,0.4,'1111122,1111122,1111122' 
ADCP,ioos:station:wmo:42390:1,2017-11-06T18:07:00Z,26.1290,-94.8980,63.4,224.0,5.5,5.4,'1111122,1111122,1111122' 
ADCP,ioos:station:wmo:42390:1,2017-11-06T19:27:00Z,26.1290,-94.8980,63.4,350.0,4.1,-1.7,'1111122,1111122,1111122' 
ADCP,ioos:station:wmo:42390:1,2017-11-06T23:27:00Z,26.1290,-94.8980,63.4,299.0,6.5,-13.7,'1111122,1111122,1111122' 
ADCP,ioos:station:wmo:42390:1,2017-11-07T00:27:00Z,26.1290,-94.8980,63.4,290.0,16.3,-31.6,'1111122,1111122,1111122' 
ADCP,ioos:station:wmo:42390:1,2017-11-07T01:27:00Z,26.1290,-94.8980,63.4,293.0,17.4,-31.5,'1111122,1111122,1111122' 
ADCP,ioos:station:wmo:42390:1,2017-11-07T02:27:00Z,26.1290,-94.8980,63.4,291.0,19.1,-29.8,'1111122,1111122,1111122' 
ADCP,ioos:station:wmo:42390:1,2017-11-07T03:27:00Z,26.1290,-94.8980,63.4,301.0,29.9,-34.6,'1111122,1111122,1111122' 
ADCP,ioos:station:wmo:42390:1,2017-11-07T04:27:00Z,26.1290,-94.8980,63.4,297.0,24.8,-20.6,'1111122,1111122,1111122' 
ADCP,ioos:station:wmo:42390:1,2017-11-07T05:27:00Z,26.1290,-94.8980,63.4,296.0,32.6,-18.9,'1111122,1111122,1111122' 
ADCP,ioos:station:wmo:42390:1,2017-11-07T06:27:00Z,26.1290,-94.8980,63.4,310.0,36.7,-28.8,'1111122,1111122,1111122' 
ADCP,ioos:station:wmo:42390:1,2017-11-07T07:27:00Z,26.1290,-94.8980,63.4,310.0,37.0,-28.5,'1111122,1111122,1111122' 
ADCP,ioos:station:wmo:42390:1,2017-11-07T08:27:00Z,26.1290,-94.8980,63.4,308.0,31.6,-16.3,'1111122,1111122,1111122' 
ADCP,ioos:station:wmo:42390:1,2017-11-07T09:27:00Z,26.1290,-94.8980,63.4,324.0,34.3,-17.5,'1111122,1111122,1111122' 
ADCP,ioos:station:wmo:42390:1,2017-11-07T10:27:00Z,26.1290,-94.8980,63.4,337.0,32.4,-21.1,'1111122,1111122,1111122' 
ADCP,ioos:station:wmo:42390:1,2017-11-07T11:27:00Z,26.1290,-94.8980,63.4,328.0,35.0,-22.5,'1111122,1111122,1111122' 
ADCP,ioos:station:wmo:42390:1,2017-11-07T12:27:00Z,26.1290,-94.8980,63.4,308.0,19.7,-12.0,'1111122,1111122,1111122' 
ADCP,ioos:station:wmo:42390:1,2017-11-07T13:27:00Z,26.1290,-94.8980,63.4,337.0,22.7,-16.1,'1111122,1111122,1111122' 
ADCP,ioos:station:wmo:42390:1,2017-11-07T14:27:00Z,26.1290,-94.8980,63.4,340.0,19.5,-8.7,'1111122,1111122,1111122' 
ADCP,ioos:station:wmo:42390:1,2017-11-07T15:27:00Z,26.1290,-94.8980,63.4,359.0,13.4,-2.9,'1111122,1111122,1111122' 
ADCP,ioos:station:wmo:42390:1,2017-11-07T18:27:00Z,26.1290,-94.8980,63.4,237.0,6.9,5.3,'1111122,1111122,1111122' 
ADCP,ioos:station:wmo:42390:1,2017-11-07T21:27:00Z,26.1290,-94.8980,63.4,243.0,10.9,2.0,'1111122,1111122,1111122' 
ADCP,ioos:station:wmo:42390:1,2017-11-07T22:27:00Z,26.1290,-94.8980,63.4,241.0,10.0,-7.4,'1111122,1111122,1111122' 
ADCP,ioos:station:wmo:42390:1,2017-11-07T23:27:00Z,26.1290,-94.8980,63.4,298.0,11.5,-17.8,'1111122,1111122,1111122' 
ADCP,ioos:station:wmo:42390:1,2017-11-08T00:27:00Z,26.1290,-94.8980,63.4,271.0,18.5,-28.6,'1111122,1111122,1111122' 
ADCP,ioos:station:wmo:42390:1,2017-11-08T01:27:00Z,26.1290,-94.8980,63.4,283.0,21.1,-28.0,'1111122,1111122,1111122' 
ADCP,ioos:station:wmo:42390:1,2017-11-08T02:27:00Z,26.1290,-94.8980,63.4,257.0,19.0,-14.6,'1111122,1111122,1111122' 
ADCP,ioos:station:wmo:42390:1,2017-11-08T03:27:00Z,26.1290,-94.8980,63.4,277.0,29.8,-23.8,'1111122,1111122,1111122' 
ADCP,ioos:station:wmo:42390:1,2017-11-08T05:27:00Z,26.1290,-94.8980,63.4,279.0,27.6,-23.6,'1111122,1111122,1111122' 
ADCP,ioos:station:wmo:42390:1,2017-11-08T08:27:00Z,26.1290,-94.8980,63.4,291.0,29.2,-24.0,'1111122,1111122,1111122' 
ADCP,ioos:station:wmo:42390:1,2017-11-08T09:27:00Z,26.1290,-94.8980,63.4,286.0,24.7,-15.5,'1111122,1111122,1111122' 
ADCP,ioos:station:wmo:42390:1,2017-11-08T10:27:00Z,26.1290,-94.8980,63.4,297.0,25.4,-11.3,'1111122,1111122,1111122' 
ADCP,ioos:station:wmo:42390:1,2017-11-08T11:07:00Z,26.1290,-94.8980,63.4,315.0,22.8,-9.5,'1111122,1111122,1111122' 
ADCP,ioos:station:wmo:42390:1,2017-11-08T12:27:00Z,26.1290,-94.8980,63.4,6.0,8.1,-5.0,'1111122,1111122,1111122' 
ADCP,ioos:station:wmo:42390:1,2017-11-08T13:27:00Z,26.1290,-94.8980,63.4,247.0,3.0,4.6,'1111122,1111122,1111122' 
ADCP,ioos:station:wmo:42390:1,2017-11-08T15:17:00Z,26.1290,-94.8980,63.4,48.0,14.1,-8.1,'1111122,1111122,1111122' 
ADCP,ioos:station:wmo:42390:1,2017-11-08T16:27:00Z,26.1290,-94.8980,63.4,94.0,15.6,1.7,'1111122,1111122,1111122' 
ADCP,ioos:station:wmo:42390:1,2017-11-08T17:27:00Z,26.1290,-94.8980,63.4,76.0,19.8,-6.5,'1111122,1111122,1111122' 
ADCP,ioos:station:wmo:42390:1,2017-11-08T18:27:00Z,26.1290,-94.8980,63.4,93.0,11.5,0.7,'1111122,1111122,1111122' 
ADCP,ioos:station:wmo:42390:1,2017-11-08T20:27:00Z,26.1290,-94.8980,63.4,75.0,6.8,-4.6,'1111122,1111122,1111122' 
ADCP,ioos:station:wmo:42390:1,2017-11-08T21:27:00Z,26.1290,-94.8980,63.4,69.0,12.3,-8.8,'1111122,1111122,1111122' 
ADCP,ioos:station:wmo:42390:1,2017-11-08T22:27:00Z,26.1290,-94.8980,63.4,85.0,4.2,-3.0,'1111122,1111122,1111122' 
ADCP,ioos:station:wmo:42390:1,2017-11-08T23:27:00Z,26.1290,-94.8980,63.4,63.0,10.2,-12.6,'1111122,1111122,1111122' 
ADCP,ioos:station:wmo:42390:1,2017-11-09T01:27:00Z,26.1290,-94.8980,63.4,336.0,19.6,-30.9,'1111122,1111122,1111122' 
ADCP,ioos:station:wmo:42390:1,2017-11-09T02:27:00Z,26.1290,-94.8980,63.4,331.0,17.2,-28.6,'1111122,1111122,1111122' 
ADCP,ioos:station:wmo:42390:1,2017-11-09T03:27:00Z,26.1290,-94.8980,63.4,327.0,24.2,-39.0,'1111122,1111122,1111122' 
ADCP,ioos:station:wmo:42390:1,2017-11-09T04:27:00Z,26.1290,-94.8980,63.4,335.0,26.3,-34.8,'1111122,1111122,1111122' 
ADCP,ioos:station:wmo:42390:1,2017-11-09T05:27:00Z,26.1290,-94.8980,63.4,347.0,25.4,-27.2,'1111122,1111122,1111122' 
ADCP,ioos:station:wmo:42390:1,2017-11-09T06:27:00Z,26.1290,-94.8980,63.4,352.0,20.3,-15.0,'1111122,1111122,1111122' 
ADCP,ioos:station:wmo:42390:1,2017-11-09T07:27:00Z,26.1290,-94.8980,63.4,336.0,30.8,-26.7,'1111122,1111122,1111122' 
ADCP,ioos:station:wmo:42390:1,2017-11-09T08:27:00Z,26.1290,-94.8980,63.4,333.0,26.7,-12.6,'1111122,1111122,1111122' 
ADCP,ioos:station:wmo:42390:1,2017-11-09T09:27:00Z,26.1290,-94.8980,63.4,337.0,45.0,-41.1,'1111122,1111122,1111122' 
ADCP,ioos:station:wmo:42390:1,2017-11-09T10:27:00Z,26.1290,-94.8980,63.4,342.0,38.9,-29.9,'1111122,1111122,1111122' 
ADCP,ioos:station:wmo:42390:1,2017-11-09T11:27:00Z,26.1290,-94.8980,63.4,338.0,39.0,-21.8,'1111122,1111122,1111122' 
ADCP,ioos:station:wmo:42390:1,2017-11-09T12:27:00Z,26.1290,-94.8980,63.4,352.0,33.3,-23.6,'1111122,1111122,1111122' 
ADCP,ioos:station:wmo:42390:1,2017-11-09T13:27:00Z,26.1290,-94.8980,63.4,346.0,25.8,-9.4,'1111122,1111122,1111122' 
ADCP,ioos:station:wmo:42390:1,2017-11-09T14:27:00Z,26.1290,-94.8980,63.4,348.0,40.9,-29.8,'1111122,1111122,1111122' 
ADCP,ioos:station:wmo:42390:1,2017-11-09T15:27:00Z,26.1290,-94.8980,63.4,357.0,29.0,-21.8,'1111122,1111122,1111122' 
ADCP,ioos:station:wmo:42390:1,2017-11-09T16:27:00Z,26.1290,-94.8980,63.4,359.0,26.4,-21.7,'1111122,1111122,1111122' 
ADCP,ioos:station:wmo:42390:1,2017-11-09T17:27:00Z,26.1290,-94.8980,63.4,16.0,14.2,-9.5,'1111122,1111122,1111122' 
ADCP,ioos:station:wmo:42390:1,2017-11-09T18:27:00Z,26.1290,-94.8980,63.4,14.0,20.0,-19.9,'1111122,1111122,1111122' 
ADCP,ioos:station:wmo:42390:1,2017-11-09T19:27:00Z,26.1290,-94.8980,63.4,358.0,10.4,-13.7,'1111122,1111122,1111122' 
ADCP,ioos:station:wmo:42390:1,2017-11-09T21:27:00Z,26.1290,-94.8980,63.4,347.0,7.8,-12.2,'1111122,1111122,1111122' 
ADCP,ioos:station:wmo:42390:1,2017-11-09T22:27:00Z,26.1290,-94.8980,63.4,315.0,16.8,-14.8,'1111122,1111122,1111122' 
ADCP,ioos:station:wmo:42390:1,2017-11-09T23:27:00Z,26.1290,-94.8980,63.4,323.0,19.1,-19.9,'1111122,1111122,1111122' 
ADCP,ioos:station:wmo:42390:1,2017-11-10T00:17:00Z,26.1290,-94.8980,63.4,305.0,24.8,-26.6,'1111122,1111122,1111122' 
ADCP,ioos:station:wmo:42390:1,2017-11-10T01:27:00Z,26.1290,-94.8980,63.4,299.0,19.8,-16.0,'1111122,1111122,1111122' 
ADCP,ioos:station:wmo:42390:1,2017-11-10T02:27:00Z,26.1290,-94.8980,63.4,308.0,21.1,-20.9,'1111122,1111122,1111122' 
ADCP,ioos:station:wmo:42390:1,2017-11-10T03:27:00Z,26.1290,-94.8980,63.4,287.0,21.4,-23.0,'1111122,1111122,1111122' 
ADCP,ioos:station:wmo:42390:1,2017-11-10T04:07:00Z,26.1290,-94.8980,63.4,314.0,22.6,-24.3,'1111122,1111122,1111122' 
ADCP,ioos:station:wmo:42390:1,2017-11-10T05:27:00Z,26.1290,-94.8980,63.4,324.0,22.2,-12.1,'1111122,1111122,1111122' 
ADCP,ioos:station:wmo:42390:1,2017-11-10T06:27:00Z,26.1290,-94.8980,63.4,323.0,27.8,-22.5,'1111122,1111122,1111122' 
ADCP,ioos:station:wmo:42390:1,2017-11-10T08:07:00Z,26.1290,-94.8980,63.4,309.0,23.6,-14.8,'1111122,1111122,1111122' 
ADCP,ioos:station:wmo:42390:1,2017-11-10T09:27:00Z,26.1290,-94.8980,63.4,314.0,32.9,-24.1,'1111122,1111122,1111122' 
ADCP,ioos:station:wmo:42390:1,2017-11-10T10:27:00Z,26.1290,-94.8980,63.4,316.0,30.6,-26.2,'1111122,1111122,1111122' 
ADCP,ioos:station:wmo:42390:1,2017-11-10T11:27:00Z,26.1290,-94.8980,63.4,329.0,29.9,-20.9,'1111122,1111122,1111122' 
ADCP,ioos:station:wmo:42390:1,2017-11-10T12:27:00Z,26.1290,-94.8980,63.4,335.0,26.5,-18.6,'1111122,1111122,1111122' 
ADCP,ioos:station:wmo:42390:1,2017-11-10T13:27:00Z,26.1290,-94.8980,63.4,342.0,24.9,-18.5,'1111122,1111122,1111122' 
ADCP,ioos:station:wmo:42390:1,2017-11-10T14:17:00Z,26.1290,-94.8980,63.4,341.0,27.8,-18.9,'1111122,1111122,1111122' 
ADCP,ioos:station:wmo:42390:1,2017-11-10T15:07:00Z,26.1290,-94.8980,63.4,352.0,23.7,-19.2,'1111122,1111122,1111122' 
ADCP,ioos:station:wmo:42390:1,2017-11-10T16:57:00Z,26.1290,-94.8980,63.4,3.0,21.3,-15.9,'1111122,1111122,1111122' 
ADCP,ioos:station:wmo:42390:1,2017-11-10T19:07:00Z,26.1290,-94.8980,63.4,324.0,10.4,-5.8,'1111122,1111122,1111122' 
ADCP,ioos:station:wmo:42390:1,2017-11-10T20:07:00Z,26.1290,-94.8980,63.4,352.0,13.8,-11.9,'1111122,1111122,1111122' 
ADCP,ioos:station:wmo:42390:1,2017-11-10T21:07:00Z,26.1290,-94.8980,63.4,9.0,15.1,-16.0,'1111122,1111122,1111122' 
ADCP,ioos:station:wmo:42390:1,2017-11-10T23:07:00Z,26.1290,-94.8980,63.4,353.0,10.2,-14.3,'1111122,1111122,1111122' 
ADCP,ioos:station:wmo:42390:1,2017-11-11T00:07:00Z,26.1290,-94.8980,63.4,331.0,18.3,-16.4,'1111122,1111122,1111122' 
ADCP,ioos:station:wmo:42390:1,2017-11-11T01:07:00Z,26.1290,-94.8980,63.4,325.0,20.5,-15.6,'1111122,1111122,1111122' 
ADCP,ioos:station:wmo:42390:1,2017-11-11T02:07:00Z,26.1290,-94.8980,63.4,311.0,26.3,-19.2,'1111122,1111122,1111122' 
ADCP,ioos:station:wmo:42390:1,2017-11-11T03:07:00Z,26.1290,-94.8980,63.4,318.0,28.2,-21.9,'1111122,1111122,1111122' 
ADCP,ioos:station:wmo:42390:1,2017-11-11T04:07:00Z,26.1290,-94.8980,63.4,313.0,27.2,-19.6,'1111122,1111122,1111122' 
ADCP,ioos:station:wmo:42390:1,2017-11-11T05:07:00Z,26.1290,-94.8980,63.4,310.0,28.2,-26.5,'1111122,1111122,1111122' 
ADCP,ioos:station:wmo:42390:1,2017-11-11T06:07:00Z,26.1290,-94.8980,63.4,320.0,31.4,-35.9,'1111122,1111122,1111122' 
ADCP,ioos:station:wmo:42390:1,2017-11-11T08:07:00Z,26.1290,-94.8980,63.4,313.0,29.3,-25.5,'1111122,1111122,1111122' 
ADCP,ioos:station:wmo:42390:1,2017-11-11T09:07:00Z,26.1290,-94.8980,63.4,312.0,29.8,-23.5,'1111122,1111122,1111122' 
ADCP,ioos:station:wmo:42390:1,2017-11-11T09:47:00Z,26.1290,-94.8980,63.4,305.0,25.0,-9.1,'1111122,1111122,1111122' 
ADCP,ioos:station:wmo:42390:1,2017-11-11T10:47:00Z,26.1290,-94.8980,63.4,321.0,29.8,-18.1,'1111122,1111122,1111122' 
ADCP,ioos:station:wmo:42390:1,2017-11-11T12:07:00Z,26.1290,-94.8980,63.4,324.0,14.0,-10.4,'1111122,1111122,1111122' 